This demonstration page uses our WeatherBlox Daily Observations layout. Learn more.

Left ArrowRight Arrow

39.51506, -84.39828

Hourly Observations for August 11, 2021

Temp ( °F °C ) Dew Point ( °F °C ) Humidity (%) Winds ( mph kmh ) Pressure ( in mb ) Visibility ( mi km ) Precip ( " mm )
12:15 am 00:15 Clear 79 26.3 78 25.3 94 94 SW 8 13 30.00 1016 10 16 N/A
12:35 am 00:35 Clear 79 26.1 77 25.2 95 95 SW 7 11 30.00 1016 10 16 N/A
12:55 am 00:55 Clear 79 26.1 78 25.3 95 95 SW 8 13 30.00 1016 10 16 N/A
1:15 am 01:15 Clear 78 25.6 78 25.4 99 99 SW 8 13 30.01 1016 10 16 N/A
1:35 am 01:35 Clear 78 25.3 78 25.3 100 100 WSW 9 15 30.01 1016 10 16 N/A
1:55 am 01:55 Clear 78 25.6 78 25.4 99 99 WSW 7 11 30.02 1017 10 16 N/A
2:15 am 02:15 Partly Cloudy 78 25.3 77 25.1 99 99 WSW 8 13 30.02 1017 10 16 N/A
2:35 am 02:35 Clear 78 25.5 77 24.9 96 96 SW 8 13 30.01 1016 10 16 N/A
2:55 am 02:55 Clear 78 25.3 76 24.6 96 96 WSW 7 11 30.01 1016 10 16 N/A
3:15 am 03:15 Clear 77 24.9 76 24.5 98 98 SW 7 11 30.00 1016 10 16 N/A
3:35 am 03:35 Clear 76 24.5 76 24.3 99 99 WSW 6 9 30.01 1016 10 16 N/A
3:55 am 03:55 Partly Cloudy 76 24.5 76 24.3 99 99 WSW 3 6 30.00 1016 10 16 N/A
4:15 am 04:15 Clear 76 24.4 76 24.2 99 99 WSW 5 7 29.99 1016 10 16 N/A
4:35 am 04:35 Clear 76 24.2 75 24.1 99 99 W 3 6 29.99 1016 10 16 N/A
4:55 am 04:55 Clear 75 24 N/A N/A W 3 6 30.00 1016 10 16 N/A
5:15 am 05:15 Clear 75 24 N/A N/A WSW 5 7 30.00 1016 10 16 N/A
5:35 am 05:35 Clear 75 24 N/A N/A SW 3 6 30.00 1016 10 16 N/A
5:55 am 05:55 Clear 75 24 N/A N/A WSW 5 7 30.00 1016 10 16 N/A
6:15 am 06:15 Clear 75 24 N/A N/A SW 6 9 30.00 1016 10 16 N/A
6:35 am 06:35 Clear 75 24 75 23.8 99 99 W 5 7 30.00 1016 10 16 N/A
6:55 am 06:55 Sunny 75 24 N/A N/A W 5 7 30.00 1016 7 11 N/A
7:15 am 07:15 Sunny 75 24 N/A N/A N N/A 30.01 1016 10 16 N/A
7:35 am 07:35 Sunny 75 24 N/A N/A N N/A 30.02 1016 10 16 N/A
7:55 am 07:55 Sunny 75 24 75 24 100 100 W 3 6 30.02 1016 10 16 N/A
8:15 am 08:15 Sunny 75 24 N/A N/A W 3 6 30.03 1017 7 11 N/A
8:35 am 08:35 Sunny 78 25.6 77 25.2 98 98 SW 5 7 30.01 1016 7 11 N/A
8:55 am 08:55 Sunny 80 26.5 77 25.1 92 92 SW 9 15 30.01 1016 10 16 N/A
9:15 am 09:15 Sunny 81 27.2 77 24.9 87 87 WSW 9 15 30.01 1016 10 16 N/A
9:35 am 09:35 Sunny 82 27.5 77 25 86 86 SW 9 15 30.01 1016 10 16 N/A
9:55 am 09:55 Sunny 82 27.9 77 24.9 84 84 WSW 12 19 30.00 1016 10 16 N/A
10:15 am 10:15 Sunny 84 28.7 77 25.1 81 81 WSW 12 19 30.00 1016 10 16 N/A
10:35 am 10:35 Sunny 84 28.8 77 24.9 79 79 SW 13 20 29.99 1016 10 16 N/A
10:55 am 10:55 Sunny 84 29 77 24.8 78 78 WSW 10 17 30.00 1016 10 16 N/A
11:15 am 11:15 Partly Cloudy 85 29.7 77 25 76 76 SW 13 20 30.01 1016 10 16 N/A
11:35 am 11:35 Sunny 86 29.9 77 25 75 75 WSW 13 20 30.01 1016 10 16 N/A
11:55 am 11:55 Sunny 86 30 77 24.8 74 74 WSW 15 24 30.01 1016 10 16 N/A
12:15 pm 12:15 Sunny 87 30.8 78 25.3 73 73 W 14 22 30.02 1017 10 16 N/A
12:35 pm 12:35 Sunny 87 30.5 77 24.9 72 72 WSW 17 28 30.02 1017 10 16 N/A
12:55 pm 12:55 Sunny 88 31.1 77 25.2 71 71 WSW 15 24 30.01 1016 10 16 N/A
1:15 pm 13:15 Sunny 89 31.7 78 25.3 69 69 SW 15 24 30.01 1016 10 16 N/A
1:35 pm 13:35 Sunny 90 32.1 78 25.4 68 68 WSW 15 24 30.00 1016 10 16 N/A
1:55 pm 13:55 Sunny 90 32.4 77 25 65 65 WSW 15 24 29.99 1015 10 16 N/A
2:15 pm 14:15 Partly Cloudy 91 32.5 77 24.9 64 64 WSW 14 22 29.99 1015 10 16 N/A
2:35 pm 14:35 Partly Cloudy 91 32.7 77 25.1 64 64 WSW 14 22 29.98 1015 10 16 N/A
2:55 pm 14:55 Mostly Cloudy 90 32.3 77 25.2 66 66 WSW 17 28 29.97 1015 10 16 N/A
3:15 pm 15:15 Sunny 92 33.4 77 24.9 61 61 W 17 28 29.96 1015 10 16 N/A
3:35 pm 15:35 Mostly Cloudy 91 32.7 77 25 64 64 WSW 15 24 29.97 1015 10 16 N/A
3:55 pm 15:55 Partly Cloudy 91 32.7 75 23.7 59 59 WSW 14 22 29.97 1015 10 16 N/A
4:15 pm 16:15 Mostly Cloudy 90 32 75 23.9 62 62 WSW 12 19 29.97 1015 10 16 N/A
4:35 pm 16:35 Mostly Cloudy with Thunderstorms 91 32.7 75 23.7 59 59 WSW 16 26 29.95 1014 10 16 N/A
4:55 pm 16:55 Partly Cloudy 91 32.7 76 24.3 61 61 WSW 13 20 29.94 1014 10 16 N/A
5:15 pm 17:15 Partly Cloudy 91 32.6 74 23.1 57 57 SW 20 31 29.93 1013 10 16 N/A
5:35 pm 17:35 Partly Cloudy 91 33 74 23.3 57 57 W 14 22 29.93 1013 10 16 N/A
5:55 pm 17:55 Partly Cloudy 91 33 74 23.6 58 58 SW 17 28 29.91 1013 10 16 N/A
6:15 pm 18:15 Sunny 91 32.6 74 23.5 59 59 SW 12 19 29.90 1012 10 16 N/A
6:35 pm 18:35 Partly Cloudy 90 32.3 74 23.3 59 59 SW 17 28 29.90 1012 10 16 N/A
6:55 pm 18:55 Sunny 89 31.9 74 23.1 60 60 SW 15 24 29.90 1012 10 16 N/A
7:15 pm 19:15 Sunny 89 31.6 74 23.2 61 61 SW 15 24 29.90 1012 10 16 N/A
7:35 pm 19:35 Sunny 88 31.2 74 23.1 62 62 SW 13 20 29.90 1013 10 16 N/A
7:55 pm 19:55 Sunny 87 30.7 73 22.7 62 62 SW 15 24 29.91 1013 10 16 N/A
8:15 pm 20:15 Sunny 86 30.2 73 22.7 64 64 SW 12 19 29.92 1013 10 16 N/A
8:35 pm 20:35 Sunny 85 29.7 74 23.1 68 68 SW 10 17 29.93 1014 10 16 N/A
8:55 pm 20:55 Clear 85 29.7 74 23.2 68 68 SW 9 15 29.93 1014 10 16 N/A
9:15 pm 21:15 Clear 85 29.5 74 23.2 69 69 SW 12 19 29.94 1014 10 16 N/A
9:35 pm 21:35 Clear 85 29.3 74 23.4 71 71 SW 12 19 29.95 1014 10 16 N/A
9:55 pm 21:55 Clear 85 29.2 74 23.5 71 71 SW 10 17 29.95 1014 10 16 N/A
10:15 pm 22:15 Clear 85 29.2 74 23.4 71 71 SW 13 20 29.96 1015 10 16 N/A
10:35 pm 22:35 Clear 85 29.3 74 23.3 70 70 SW 12 19 29.96 1015 10 16 N/A
10:55 pm 22:55 Clear 84 28.9 74 23.5 73 73 SW 9 15 29.97 1015 10 16 N/A
11:15 pm 23:15 Clear 83 28.3 75 23.7 76 76 SW 10 17 29.98 1015 10 16 N/A
11:35 pm 23:35 Clear 83 28.2 75 23.7 77 77 SW 9 15 29.97 1015 10 16 N/A
11:55 pm 23:55 Clear 82 28 75 23.8 78 78 WSW 8 13 29.97 1015 10 16 N/A

Powered by AerisWeather